Change the Weather History Date:

Saturday, August 18, 2012

  Actual Average Record
Temperature  
Mean Temperature 78 °F 80 °F  
Max Temperature 85 °F 90 °F 103 °F (1936)
Min Temperature 70 °F 69 °F 57 °F (1958)
Degree Days  
Heating Degree Days 0 0  
Month to date heating degree days 0 0  
Since 1 June heating degree days 0 2  
Since 1 July heating degree days 0 0  
Cooling Degree Days 13 15  
Month to date cooling degree days 253 270  
Year to date cooling degree days 1618 1274  
Since 1 June cooling degree days 1193 1078  
Growing Degree Days 27 (Base 50)    
Moisture  
Dew Point 66 °F    
Average Humidity 71    
Maximum Humidity 90    
Minimum Humidity 51    
Precipitation  
Precipitation T in 0.11 in 1.61 in (1956)
Month to date precipitation 3.73 2.12  
Year to date precipitation 30.97 33.90  
Snow  
Snow 0.00 in 0.00 in - ()
Month to date snowfall 0.0 0.0  
Since 1 June snowfall 0.0 0.0  
Since 1 July snowfall 0.0 0.0  
Snow Depth 0.00 in    
Sea Level Pressure  
Sea Level Pressure 29.91 in    
Wind  
Wind Speed 3 mph (NW)    
Max Wind Speed 10 mph    
Max Gust Speed 14 mph    
Visibility 10 miles    
Events      
T = Trace of Precipitation, MM = Missing Value Source: NWS Daily Summary

Daily Weather History Graph

Daily Weather History Graph

Search for Another Location

Airport or City:

Trip Planner

Search our weather history database for the weather conditions in past years. The results will help you decide how hot, cold, wet, or windy it might be!

Date:

Astronomy

Aug. 18, 2012 Rise Set
Actual Time 7:03 AM EDT 8:25 PM EDT
Civil Twilight 6:36 AM EDT 8:51 PM EDT
Nautical Twilight 6:04 AM EDT 9:23 PM EDT
Astronomical Twilight 5:31 AM EDT 9:56 PM EDT
Moon 8:05 AM EDT (8/18) 8:47 PM EDT (8/18)
Length of Visible Light 14h 14m
Length of Day
13h 21m
New Moon, 1% of the Moon is Illuminated
Aug 18
New Moon
Aug 24
First Quarter
Aug 31
Full
Sep 8
Last Quarter
Sep 15
New

Hourly Weather History & Observations

Time (EDT) Temp. Heat Index Dew Point Humidity Pressure Visibility Wind Dir Wind Speed Gust Speed Precip Events Conditions
12:53 AM 73.0 °F - 66.9 °F 81% 29.94 in 10.0 mi North 6.9 mph - N/A   Scattered Clouds
1:53 AM 71.1 °F - 66.9 °F 87% 29.94 in 9.0 mi Calm Calm - N/A   Scattered Clouds
2:53 AM 71.1 °F - 66.9 °F 87% 29.92 in 9.0 mi Calm Calm - N/A   Scattered Clouds
3:53 AM 71.1 °F - 66.9 °F 87% 29.92 in 8.0 mi Calm Calm - N/A   Scattered Clouds
4:53 AM 71.1 °F - 66.9 °F 87% 29.91 in 8.0 mi Calm Calm - N/A   Overcast
5:53 AM 69.8 °F - 66.2 °F 88% 29.94 in 7.0 mi Calm Calm - N/A   Mostly Cloudy
6:53 AM 71.1 °F - 66.9 °F 87% 29.92 in 10.0 mi NW 3.5 mph - N/A   Overcast
7:53 AM 71.1 °F - 66.0 °F 84% 29.95 in 10.0 mi West 4.6 mph - N/A   Overcast
8:53 AM 72.0 °F - 66.0 °F 81% 29.95 in 10.0 mi Calm Calm - N/A   Mostly Cloudy
9:53 AM 75.0 °F - 64.9 °F 71% 29.95 in 10.0 mi North 5.8 mph - N/A   Mostly Cloudy
10:53 AM 77.0 °F - 64.9 °F 66% 29.95 in 10.0 mi NNW 5.8 mph - N/A   Mostly Cloudy
11:53 AM 80.1 °F 81.9 °F 64.9 °F 60% 29.94 in 10.0 mi NE 5.8 mph - N/A   Scattered Clouds
12:53 PM 80.1 °F 81.5 °F 63.0 °F 56% 29.92 in 10.0 mi Calm Calm - N/A   Mostly Cloudy
1:53 PM 84.0 °F 85.4 °F 64.0 °F 51% 29.90 in 10.0 mi Calm Calm - N/A   Mostly Cloudy
2:53 PM 84.9 °F 86.1 °F 64.0 °F 49% 29.88 in 10.0 mi Variable 3.5 mph - N/A   Mostly Cloudy
3:53 PM 84.0 °F 85.4 °F 64.0 °F 51% 29.85 in 10.0 mi SSE 4.6 mph - N/A   Mostly Cloudy
4:53 PM 82.9 °F 84.4 °F 64.0 °F 53% 29.85 in 10.0 mi SW 5.8 mph - N/A   Mostly Cloudy
5:53 PM 82.9 °F 84.0 °F 63.0 °F 51% 29.84 in 10.0 mi SW 8.1 mph - N/A   Mostly Cloudy
6:53 PM 82.9 °F 84.4 °F 64.0 °F 53% 29.85 in 10.0 mi West 6.9 mph - N/A   Mostly Cloudy
7:53 PM 80.1 °F 81.9 °F 64.9 °F 60% 29.86 in 10.0 mi West 4.6 mph - N/A   Mostly Cloudy
8:53 PM 78.1 °F - 66.0 °F 66% 29.87 in 10.0 mi Calm Calm - N/A   Overcast
9:53 PM 75.9 °F - 66.9 °F 74% 29.88 in 10.0 mi NNW 3.5 mph - N/A   Overcast
10:53 PM 75.9 °F - 66.0 °F 71% 29.88 in 10.0 mi Calm Calm - N/A   Overcast
11:53 PM 73.9 °F - 68.0 °F 82% 29.88 in 10.0 mi Calm Calm - N/A   Overcast